DLH526 EGCC-LTBS

Flight info

Callsign DLH526
Flight time 3h 42m
Altitude 35000
Route SONEX L975 DESIG L603 DOLAS DCT NAVPI DCT DOJOH DCT DODEN DCT NEGIX DCT DINKU DCT BESNI DCT LATLO DCT OBEDI DCT CEPRA DCT PODET DCT IRDIV DCT VABEK UL603 OLOTA DCT RUGAS UN128 RIKSO UP14 ODNOD UT491 SONUP
Aircraft MD11/H-SDE1E2E3FGHIJ2J3J4J5M1RWXY/LB1D1

Departure

Time 2026-05-08 19:43
Airport Manchester Airport (EGCC)

Arrival

Time 2026-05-08 23:25
Airport Dalaman International Airport (LTBS)
Time Latitude Longitude Altitude Speed Heading
2026-05-08 18:54 53.36215 -2.28307 260 ft 0 kts 223°
2026-05-08 19:17 53.36218 -2.28301 261 ft 2 kts 223°
2026-05-08 19:17 53.36230 -2.28283 264 ft 2 kts 223°
2026-05-08 19:18 53.36242 -2.28264 261 ft 2 kts 223°
2026-05-08 19:18 53.36254 -2.28246 265 ft 2 kts 223°
2026-05-08 19:18 53.36266 -2.28228 263 ft 2 kts 207°
2026-05-08 19:18 53.36281 -2.28219 261 ft 2 kts 174°
2026-05-08 19:19 53.36294 -2.28227 265 ft 0 kts 136°
2026-05-08 19:27 53.36284 -2.28210 260 ft 4 kts 136°
2026-05-08 19:27 53.36252 -2.28157 258 ft 9 kts 136°
2026-05-08 19:28 53.36198 -2.28070 258 ft 13 kts 136°
2026-05-08 19:28 53.36126 -2.27948 257 ft 16 kts 135°
2026-05-08 19:28 53.36055 -2.27841 256 ft 8 kts 150°
2026-05-08 19:28 53.36006 -2.27832 256 ft 7 kts 186°
2026-05-08 19:29 53.35950 -2.27843 257 ft 9 kts 185°
2026-05-08 19:29 53.35881 -2.27836 257 ft 11 kts 160°
2026-05-08 19:29 53.35825 -2.27756 256 ft 8 kts 133°
2026-05-08 19:29 53.35794 -2.27699 255 ft 1 kts 135°
2026-05-08 19:30 53.35781 -2.27679 255 ft 4 kts 136°
2026-05-08 19:30 53.35767 -2.27666 255 ft 3 kts 152°
2026-05-08 19:30 53.35735 -2.27643 255 ft 7 kts 158°
2026-05-08 19:30 53.35698 -2.27608 254 ft 5 kts 139°
2026-05-08 19:31 53.35688 -2.27568 254 ft 3 kts 88°
2026-05-08 19:31 53.35692 -2.27546 253 ft 0 kts 77°
2026-05-08 19:31 53.35691 -2.27541 253 ft 1 kts 86°
2026-05-08 19:31 53.35684 -2.27531 253 ft 1 kts 136°
2026-05-08 19:32 53.35669 -2.27532 253 ft 5 kts 179°
2026-05-08 19:32 53.35640 -2.27525 253 ft 7 kts 161°
2026-05-08 19:32 53.35632 -2.27434 251 ft 12 kts 58°
2026-05-08 19:32 53.35695 -2.27302 249 ft 16 kts 51°
2026-05-08 19:33 53.35767 -2.27152 247 ft 12 kts 51°
2026-05-08 19:33 53.35814 -2.27054 245 ft 7 kts 54°
2026-05-08 19:33 53.35839 -2.26986 244 ft 7 kts 59°
2026-05-08 19:33 53.35868 -2.26903 243 ft 9 kts 59°
2026-05-08 19:34 53.35902 -2.26822 242 ft 8 kts 50°
2026-05-08 19:34 53.35939 -2.26743 241 ft 9 kts 53°
2026-05-08 19:34 53.35980 -2.26656 240 ft 10 kts 51°
2026-05-08 19:34 53.36027 -2.26557 238 ft 12 kts 52°
2026-05-08 19:35 53.36082 -2.26443 236 ft 13 kts 50°
2026-05-08 19:35 53.36134 -2.26338 236 ft 9 kts 52°
2026-05-08 19:35 53.36140 -2.26284 236 ft 0 kts 97°
2026-05-08 19:41 53.36137 -2.26275 234 ft 3 kts 110°
2026-05-08 19:41 53.36105 -2.26206 236 ft 15 kts 128°
2026-05-08 19:41 53.36065 -2.26148 235 ft 2 kts 160°
2026-05-08 19:41 53.36025 -2.26167 238 ft 6 kts 220°
2026-05-08 19:42 53.35954 -2.26300 239 ft 32 kts 231°
2026-05-08 19:42 53.35636 -2.26951 245 ft 111 kts 231°
2026-05-08 19:42 53.35009 -2.28250 268 ft 173 kts 231°
2026-05-08 19:42 53.34225 -2.29878 811 ft 180 kts 230°
2026-05-08 19:43 53.33420 -2.31551 1579 ft 184 kts 229°
2026-05-08 19:43 53.32605 -2.33253 2315 ft 193 kts 228°
2026-05-08 19:43 53.31839 -2.35021 3208 ft 190 kts 240°
2026-05-08 19:43 53.31593 -2.37311 3566 ft 222 kts 278°
2026-05-08 19:44 53.32337 -2.39683 3799 ft 251 kts 314°
2026-05-08 19:44 53.33879 -2.41312 3979 ft 278 kts 340°
2026-05-08 19:44 53.35776 -2.42247 4404 ft 287 kts 346°
2026-05-08 19:44 53.37726 -2.43083 4769 ft 294 kts 346°
2026-05-08 19:45 53.39679 -2.43959 5819 ft 291 kts 344°
2026-05-08 19:45 53.41634 -2.44886 6740 ft 294 kts 343°
2026-05-08 19:45 53.43606 -2.45866 7598 ft 297 kts 342°
2026-05-08 19:45 53.45587 -2.46873 8461 ft 299 kts 343°
2026-05-08 19:46 53.47627 -2.47382 9236 ft 303 kts
2026-05-08 19:46 53.49640 -2.46420 10024 ft 306 kts 31°
2026-05-08 19:46 53.52137 -2.40501 9619 ft 319 kts 82°
2026-05-08 19:47 53.52075 -2.36814 9027 ft 322 kts 109°
2026-05-08 19:47 53.51011 -2.33365 9078 ft 342 kts 127°
2026-05-08 19:47 53.49852 -2.29852 9777 ft 348 kts 109°
2026-05-08 19:47 53.49445 -2.25794 10506 ft 358 kts 93°
2026-05-08 19:48 53.49531 -2.21574 11202 ft 365 kts 86°
2026-05-08 19:48 53.49829 -2.17381 11861 ft 372 kts 83°
2026-05-08 19:48 53.50235 -2.13063 12571 ft 377 kts 82°
2026-05-08 19:48 53.50688 -2.08687 13267 ft 383 kts 81°
2026-05-08 19:49 53.51160 -2.04245 13891 ft 390 kts 81°
2026-05-08 19:49 53.51643 -1.99731 14499 ft 394 kts 81°
2026-05-08 19:49 53.52124 -1.95188 15111 ft 397 kts 81°
2026-05-08 19:49 53.52524 -1.90582 15622 ft 400 kts 90°
2026-05-08 19:50 53.52282 -1.85961 16223 ft 398 kts 103°
2026-05-08 19:50 53.51614 -1.81432 16807 ft 399 kts 109°
2026-05-08 19:50 53.50803 -1.77017 17384 ft 402 kts 110°
2026-05-08 19:50 53.49945 -1.72546 17962 ft 404 kts 110°
2026-05-08 19:51 53.49086 -1.68021 18510 ft 408 kts 110°
2026-05-08 19:51 53.48241 -1.63462 18967 ft 411 kts 110°
2026-05-08 19:51 53.47402 -1.58854 19422 ft 414 kts 110°
2026-05-08 19:51 53.46559 -1.54209 19827 ft 417 kts 110°
2026-05-08 19:52 53.45717 -1.49539 20239 ft 421 kts 110°
2026-05-08 19:52 53.44869 -1.44827 20701 ft 423 kts 110°
2026-05-08 19:52 53.44028 -1.40148 21120 ft 426 kts 110°
2026-05-08 19:52 53.43167 -1.35364 21551 ft 430 kts 110°
2026-05-08 19:53 53.42299 -1.30552 22001 ft 433 kts 110°
2026-05-08 19:53 53.41421 -1.25711 22451 ft 436 kts 110°
2026-05-08 19:53 53.40532 -1.20830 22901 ft 439 kts 110°
2026-05-08 19:53 53.39634 -1.15915 23347 ft 443 kts 110°
2026-05-08 19:54 53.38730 -1.10971 23791 ft 446 kts 110°
2026-05-08 19:54 53.37818 -1.05982 24168 ft 450 kts 110°
2026-05-08 19:54 53.36910 -1.01028 24526 ft 453 kts 109°
2026-05-08 19:54 53.35980 -0.95961 24901 ft 457 kts 109°
2026-05-08 19:55 53.35041 -0.90856 25284 ft 461 kts 109°
2026-05-08 19:55 53.34094 -0.85720 25671 ft 464 kts 109°
2026-05-08 19:55 53.33137 -0.80544 26048 ft 468 kts 109°
2026-05-08 19:55 53.32168 -0.75323 26431 ft 472 kts 109°
2026-05-08 19:56 53.31188 -0.70057 26806 ft 475 kts 110°
2026-05-08 19:56 53.30205 -0.64837 27172 ft 479 kts 110°
2026-05-08 19:56 53.29199 -0.59519 27535 ft 482 kts 110°
2026-05-08 19:56 53.28183 -0.54149 27902 ft 486 kts 110°
2026-05-08 19:57 53.27160 -0.48742 28269 ft 489 kts 110°
2026-05-08 19:57 53.26130 -0.43308 28619 ft 493 kts 110°
2026-05-08 19:57 53.25091 -0.37845 28950 ft 496 kts 109°
2026-05-08 19:57 53.24040 -0.32333 29341 ft 499 kts 109°
2026-05-08 19:58 53.22998 -0.26884 29652 ft 502 kts 109°
2026-05-08 19:58 53.21930 -0.21310 29989 ft 505 kts 109°
2026-05-08 19:58 53.20855 -0.15707 30276 ft 508 kts 109°
2026-05-08 19:58 53.19774 -0.10089 30538 ft 511 kts 109°
2026-05-08 19:59 53.18683 -0.04425 30805 ft 513 kts 109°
2026-05-08 19:59 53.17584 0.01239 31158 ft 513 kts 109°
2026-05-08 19:59 53.16484 0.06887 31495 ft 513 kts 109°
2026-05-08 19:59 53.15379 0.12553 31810 ft 513 kts 109°
2026-05-08 20:00 53.14278 0.18195 32137 ft 513 kts 109°
2026-05-08 20:00 53.13172 0.23851 32437 ft 513 kts 109°
2026-05-08 20:00 53.12064 0.29498 32740 ft 513 kts 109°
2026-05-08 20:00 53.10970 0.35063 33031 ft 513 kts 109°
2026-05-08 20:01 53.09860 0.40695 33321 ft 513 kts 109°
2026-05-08 20:01 53.08742 0.46349 33619 ft 513 kts 109°
2026-05-08 20:01 53.07628 0.51966 33883 ft 512 kts 109°
2026-05-08 20:01 53.06510 0.57588 34179 ft 511 kts 109°
2026-05-08 20:02 53.05391 0.63193 34426 ft 510 kts 109°
2026-05-08 20:02 53.04272 0.68786 34670 ft 509 kts 109°
2026-05-08 20:02 53.03155 0.74353 34910 ft 508 kts 109°
2026-05-08 20:02 53.02047 0.79863 35084 ft 509 kts 109°
2026-05-08 20:03 52.99803 0.90968 35141 ft 507 kts 109°
2026-05-08 20:03 52.98685 0.96473 35508 ft 501 kts 109°
2026-05-08 20:03 52.97537 1.01899 35875 ft 496 kts 110°
2026-05-08 20:04 52.96341 1.07264 36104 ft 497 kts 111°
2026-05-08 20:04 52.95118 1.12631 36140 ft 499 kts 111°
2026-05-08 20:04 52.92650 1.23420 36156 ft 502 kts 111°
2026-05-08 20:05 52.90195 1.34207 36157 ft 505 kts 111°
2026-05-08 20:05 52.87716 1.45103 36158 ft 506 kts 111°
2026-05-08 20:06 52.85212 1.55985 36157 ft 505 kts 113°
2026-05-08 20:06 52.81603 1.65879 36156 ft 504 kts 130°
2026-05-08 20:07 52.77291 1.74921 36158 ft 505 kts 125°
2026-05-08 20:07 52.73732 1.84916 36159 ft 505 kts 117°
2026-05-08 20:08 52.70713 1.95378 36163 ft 505 kts 115°
2026-05-08 20:08 52.67790 2.05898 36167 ft 506 kts 114°
2026-05-08 20:09 52.64814 2.16402 36167 ft 506 kts 115°
2026-05-08 20:09 52.61778 2.26772 36164 ft 506 kts 116°
2026-05-08 20:10 52.58631 2.37114 36150 ft 506 kts 117°
2026-05-08 20:10 52.55444 2.47422 36150 ft 506 kts 117°
2026-05-08 20:11 52.52253 2.57733 36147 ft 507 kts 116°
2026-05-08 20:11 52.49056 2.67934 36135 ft 506 kts 116°
2026-05-08 20:12 52.45875 2.78218 36156 ft 505 kts 116°
2026-05-08 20:12 52.42685 2.88482 36157 ft 505 kts 116°
2026-05-08 20:13 52.39477 2.98719 36162 ft 505 kts 116°
2026-05-08 20:13 52.36271 3.08891 36150 ft 507 kts 116°
2026-05-08 20:14 52.33036 3.19114 36148 ft 507 kts 116°
2026-05-08 20:14 52.29790 3.29329 36146 ft 507 kts 116°
2026-05-08 20:15 52.26532 3.39539 36147 ft 507 kts 116°
2026-05-08 20:15 52.23246 3.49691 36136 ft 507 kts 117°
2026-05-08 20:16 52.19958 3.59768 36142 ft 506 kts 116°
2026-05-08 20:16 52.16667 3.69911 36143 ft 506 kts 116°
2026-05-08 20:17 52.13379 3.80050 36138 ft 506 kts 116°
2026-05-08 20:17 52.10083 3.90174 36143 ft 506 kts 116°
2026-05-08 20:18 52.06805 4.00198 36133 ft 506 kts 116°
2026-05-08 20:18 52.03491 4.10290 36148 ft 506 kts 117°
2026-05-08 20:19 52.00172 4.20352 36140 ft 506 kts 117°
2026-05-08 20:19 51.96844 4.30405 36136 ft 506 kts 117°
2026-05-08 20:20 51.93506 4.40445 36130 ft 506 kts 117°
2026-05-08 20:20 51.90183 4.50400 36129 ft 506 kts 117°
2026-05-08 20:21 51.86827 4.60412 36127 ft 506 kts 117°
2026-05-08 20:21 51.83434 4.70369 36121 ft 506 kts 117°
2026-05-08 20:22 51.80030 4.80325 36128 ft 506 kts 117°
2026-05-08 20:22 51.77213 4.88604 36121 ft 505 kts 117°
2026-05-08 20:23 51.73285 5.00144 36122 ft 505 kts 117°
2026-05-08 20:23 51.69889 5.10081 36122 ft 505 kts 117°
2026-05-08 20:24 51.66489 5.19988 36118 ft 505 kts 117°
2026-05-08 20:24 51.63105 5.29805 36115 ft 505 kts 117°
2026-05-08 20:25 51.59692 5.39669 36129 ft 504 kts 117°
2026-05-08 20:25 51.56275 5.49506 36129 ft 503 kts 117°
2026-05-08 20:26 51.52858 5.59305 36125 ft 503 kts 117°
2026-05-08 20:26 51.49425 5.69112 36126 ft 503 kts 117°
2026-05-08 20:27 51.46010 5.78826 36131 ft 503 kts 118°
2026-05-08 20:27 51.42548 5.88502 36122 ft 500 kts 118°
2026-05-08 20:28 51.39029 5.98127 36123 ft 501 kts 120°
2026-05-08 20:28 51.35425 6.07659 36123 ft 501 kts 120°
2026-05-08 20:29 51.31835 6.17116 36122 ft 501 kts 120°
2026-05-08 20:29 51.28231 6.26615 36130 ft 499 kts 120°
2026-05-08 20:30 51.24630 6.36086 36130 ft 498 kts 120°
2026-05-08 20:30 51.21025 6.45534 36130 ft 498 kts 121°
2026-05-08 20:31 51.17416 6.54956 36129 ft 498 kts 121°
2026-05-08 20:31 51.13816 6.64317 36122 ft 498 kts 121°
2026-05-08 20:32 51.10196 6.73700 36128 ft 497 kts 121°
2026-05-08 20:32 51.06576 6.83046 36128 ft 497 kts 121°
2026-05-08 20:33 51.02945 6.92387 36128 ft 497 kts 122°
2026-05-08 20:33 50.99308 7.01702 36129 ft 497 kts 122°
2026-05-08 20:34 50.95626 7.10980 36134 ft 496 kts 122°
2026-05-08 20:35 50.90154 7.24800 36128 ft 495 kts 122°
2026-05-08 20:35 50.86502 7.34041 36128 ft 496 kts 122°
2026-05-08 20:36 50.82839 7.43286 36130 ft 496 kts 122°
2026-05-08 20:36 50.79173 7.52502 36142 ft 495 kts 122°
2026-05-08 20:37 50.75500 7.61700 36135 ft 495 kts 123°
2026-05-08 20:37 50.71847 7.70815 36134 ft 494 kts 123°
2026-05-08 20:38 50.68162 7.79978 36133 ft 495 kts 123°
2026-05-08 20:38 50.64473 7.89119 36133 ft 495 kts 123°
2026-05-08 20:39 50.60772 7.98258 36142 ft 494 kts 123°
2026-05-08 20:39 50.57098 8.07298 36142 ft 494 kts 123°
2026-05-08 20:40 50.53376 8.16376 36142 ft 494 kts 124°
2026-05-08 20:40 50.49631 8.25409 36145 ft 494 kts 124°
2026-05-08 20:41 50.45891 8.34471 36138 ft 494 kts 123°
2026-05-08 20:41 50.42161 8.43518 36138 ft 494 kts 124°
2026-05-08 20:42 50.38195 8.52286 36134 ft 493 kts 131°
2026-05-08 20:42 50.33619 8.60149 36130 ft 492 kts 135°
2026-05-08 20:43 50.28883 8.67875 36130 ft 493 kts 135°
2026-05-08 20:43 50.24180 8.75651 36123 ft 493 kts 134°
2026-05-08 20:44 50.19497 8.83464 36127 ft 493 kts 134°
2026-05-08 20:44 50.14812 8.91279 36122 ft 493 kts 134°
2026-05-08 20:45 50.10122 8.99072 36121 ft 493 kts 134°
2026-05-08 20:45 50.05461 9.06792 36133 ft 493 kts 134°
2026-05-08 20:46 50.00760 9.14553 36111 ft 492 kts 135°
2026-05-08 20:46 49.96056 9.22295 36107 ft 493 kts 135°
2026-05-08 20:47 49.91342 9.30029 36125 ft 493 kts 135°
2026-05-08 20:47 49.86629 9.37738 36126 ft 493 kts 135°
2026-05-08 20:48 49.81932 9.45382 36125 ft 493 kts 135°
2026-05-08 20:48 49.77179 9.53031 36116 ft 493 kts 135°
2026-05-08 20:49 49.72433 9.60684 36121 ft 493 kts 135°
2026-05-08 20:49 49.67688 9.68347 36117 ft 493 kts 135°
2026-05-08 20:50 49.62940 9.76000 36122 ft 493 kts 135°
2026-05-08 20:50 49.58186 9.83638 36121 ft 493 kts 135°
2026-05-08 20:51 49.53466 9.91198 36113 ft 493 kts 136°
2026-05-08 20:51 49.48694 9.98817 36129 ft 494 kts 136°
2026-05-08 20:52 49.43922 10.06413 36127 ft 494 kts 136°
2026-05-08 20:52 49.39153 10.13983 36129 ft 493 kts 136°
2026-05-08 20:53 49.34408 10.21492 36132 ft 493 kts 136°
2026-05-08 20:53 49.29626 10.29037 36130 ft 493 kts 136°
2026-05-08 20:54 49.24831 10.36569 36142 ft 494 kts 137°
2026-05-08 20:54 49.19943 10.43947 36148 ft 493 kts 138°
2026-05-08 20:55 49.15045 10.51196 36160 ft 493 kts 138°
2026-05-08 20:55 49.10118 10.58498 36158 ft 494 kts 138°
2026-05-08 20:56 49.05200 10.65792 36149 ft 494 kts 138°
2026-05-08 20:56 49.00269 10.73091 36149 ft 494 kts 138°
2026-05-08 20:57 48.95363 10.80330 36133 ft 494 kts 138°
2026-05-08 20:57 48.90428 10.87591 36125 ft 494 kts 138°
2026-05-08 20:58 48.85487 10.94838 36104 ft 494 kts 138°
2026-05-08 20:58 48.80534 11.02082 36102 ft 495 kts 138°
2026-05-08 20:59 48.75567 11.09325 36097 ft 495 kts 139°
2026-05-08 20:59 48.70629 11.16506 36101 ft 495 kts 139°
2026-05-08 21:00 48.65651 11.23723 36100 ft 495 kts 139°
2026-05-08 21:00 48.60699 11.30957 36094 ft 496 kts 136°
2026-05-08 21:01 48.55991 11.38595 36095 ft 497 kts 134°
2026-05-08 21:01 48.51380 11.46359 36085 ft 497 kts 134°
2026-05-08 21:02 48.46785 11.54050 36092 ft 497 kts 134°
2026-05-08 21:02 48.42137 11.61759 36100 ft 497 kts 135°
2026-05-08 21:03 48.37483 11.69440 36096 ft 497 kts 135°
2026-05-08 21:03 48.32821 11.77113 36103 ft 497 kts 135°
2026-05-08 21:04 48.28184 11.84723 36102 ft 497 kts 135°
2026-05-08 21:04 48.23508 11.92375 36097 ft 497 kts 135°
2026-05-08 21:05 48.18830 12.00009 36092 ft 497 kts 135°
2026-05-08 21:05 48.14151 12.07622 36080 ft 497 kts 135°
2026-05-08 21:06 48.09466 12.15223 36079 ft 496 kts 135°
2026-05-08 21:06 48.04812 12.22738 36074 ft 496 kts 135°
2026-05-08 21:07 48.00095 12.30271 36072 ft 496 kts 135°
2026-05-08 21:07 47.95388 12.37804 36063 ft 497 kts 135°
2026-05-08 21:08 47.90706 12.45309 36073 ft 497 kts 135°
2026-05-08 21:08 47.85991 12.52851 36071 ft 497 kts 135°
2026-05-08 21:09 47.81277 12.60371 36072 ft 497 kts 135°
2026-05-08 21:09 47.76552 12.67883 36087 ft 497 kts 135°
2026-05-08 21:10 47.71862 12.75319 36081 ft 495 kts 135°
2026-05-08 21:10 47.67107 12.82726 36090 ft 495 kts 137°
2026-05-08 21:11 47.62245 12.89944 36094 ft 495 kts 137°
2026-05-08 21:11 47.57361 12.97136 36089 ft 495 kts 137°
2026-05-08 21:12 47.52518 13.04282 36087 ft 495 kts 137°
2026-05-08 21:12 47.47663 13.11446 36090 ft 493 kts 138°
2026-05-08 21:13 47.42799 13.18603 36090 ft 494 kts 137°
2026-05-08 21:13 47.37927 13.25751 36089 ft 494 kts 137°
2026-05-08 21:14 47.33075 13.32851 36093 ft 494 kts 137°
2026-05-08 21:14 47.28629 13.40588 36088 ft 495 kts 129°
2026-05-08 21:15 47.24630 13.48847 36091 ft 495 kts 127°
2026-05-08 21:15 47.20660 13.57128 36097 ft 495 kts 128°
2026-05-08 21:16 47.16633 13.65359 36098 ft 497 kts 128°
2026-05-08 21:16 47.12599 13.73517 36093 ft 496 kts 129°
2026-05-08 21:17 47.08543 13.81685 36096 ft 494 kts 129°
2026-05-08 21:17 47.04496 13.89816 36102 ft 494 kts 129°
2026-05-08 21:18 47.01124 13.96574 36093 ft 494 kts 129°
2026-05-08 21:18 46.96400 14.06014 36081 ft 494 kts 129°
2026-05-08 21:19 46.92344 14.14096 36080 ft 492 kts 129°
2026-05-08 21:19 46.88288 14.22151 36092 ft 493 kts 129°
2026-05-08 21:20 46.84903 14.28857 36097 ft 493 kts 129°
2026-05-08 21:20 46.80147 14.38194 36099 ft 493 kts 130°
2026-05-08 21:21 46.76057 14.46178 36097 ft 490 kts 130°
2026-05-08 21:21 46.72679 14.52790 36099 ft 490 kts 130°
2026-05-08 21:22 46.68614 14.60750 36099 ft 489 kts 130°
2026-05-08 21:22 46.64546 14.68699 36096 ft 489 kts 130°
2026-05-08 21:23 46.59810 14.77920 36094 ft 489 kts 130°
2026-05-08 21:23 46.56420 14.84503 36092 ft 489 kts 130°
2026-05-08 21:24 46.52342 14.92399 36094 ft 489 kts 130°
2026-05-08 21:24 46.48255 15.00291 36091 ft 489 kts 130°
2026-05-08 21:25 46.44168 15.08162 36087 ft 487 kts 130°
2026-05-08 21:25 46.40094 15.15984 36088 ft 486 kts 130°
2026-05-08 21:26 46.36092 15.23803 36081 ft 487 kts 128°
2026-05-08 21:26 46.32179 15.31847 36086 ft 490 kts 128°
2026-05-08 21:27 46.28291 15.39942 36077 ft 489 kts 128°
2026-05-08 21:27 46.24435 15.47938 36082 ft 488 kts 128°
2026-05-08 21:28 46.20549 15.55953 36084 ft 488 kts 128°
2026-05-08 21:28 46.16354 15.63585 36075 ft 483 kts 137°
2026-05-08 21:29 46.11542 15.70316 36077 ft 482 kts 140°
2026-05-08 21:29 46.06629 15.76899 36071 ft 483 kts 140°
2026-05-08 21:30 46.01760 15.83526 36077 ft 486 kts 140°
2026-05-08 21:30 45.96873 15.90243 36078 ft 486 kts 139°
2026-05-08 21:31 45.91988 15.96956 36078 ft 486 kts 139°
2026-05-08 21:31 45.87118 16.03629 36073 ft 483 kts 140°
2026-05-08 21:32 45.82281 16.10235 36070 ft 483 kts 140°
2026-05-08 21:32 45.77390 16.16895 36076 ft 486 kts 140°
2026-05-08 21:33 45.72485 16.23559 36073 ft 486 kts 140°
2026-05-08 21:33 45.67583 16.30205 36068 ft 483 kts 140°
2026-05-08 21:34 45.62740 16.36752 36072 ft 482 kts 140°
2026-05-08 21:34 45.57861 16.43324 36070 ft 482 kts 140°
2026-05-08 21:35 45.52963 16.49857 36066 ft 482 kts 140°
2026-05-08 21:35 45.48073 16.56384 36057 ft 482 kts 140°
2026-05-08 21:36 45.43230 16.62860 36066 ft 480 kts 140°
2026-05-08 21:36 45.38356 16.69368 36067 ft 480 kts 140°
2026-05-08 21:37 45.33478 16.75865 36066 ft 480 kts 140°
2026-05-08 21:37 45.28593 16.82353 36063 ft 482 kts 140°
2026-05-08 21:38 45.23685 16.88857 36063 ft 483 kts 140°
2026-05-08 21:38 45.18805 16.95308 36068 ft 483 kts 140°
2026-05-08 21:39 45.13888 17.01791 36063 ft 483 kts 140°
2026-05-08 21:39 45.08967 17.08263 36065 ft 483 kts 140°
2026-05-08 21:40 45.04049 17.14724 36062 ft 484 kts 139°
2026-05-08 21:40 44.99545 17.21845 36076 ft 488 kts 131°
2026-05-08 21:41 44.93389 17.33234 36073 ft 489 kts 130°
2026-05-08 21:41 44.89251 17.40840 36066 ft 488 kts 130°
2026-05-08 21:42 44.85096 17.48367 36071 ft 486 kts 131°
2026-05-08 21:42 44.80970 17.55796 36072 ft 485 kts 131°
2026-05-08 21:43 44.76796 17.63290 36066 ft 488 kts 131°
2026-05-08 21:43 44.72600 17.70810 36072 ft 488 kts 131°
2026-05-08 21:44 44.68413 17.78297 36079 ft 486 kts 131°
2026-05-08 21:44 44.64230 17.85756 36069 ft 486 kts 131°
2026-05-08 21:45 44.60066 17.93161 36070 ft 487 kts 131°
2026-05-08 21:45 44.55868 18.00608 36069 ft 486 kts 131°
2026-05-08 21:46 44.51675 18.08023 36059 ft 485 kts 131°
2026-05-08 21:46 44.47472 18.15367 36070 ft 487 kts 131°
2026-05-08 21:47 44.43244 18.22767 36074 ft 487 kts 131°
2026-05-08 21:47 44.39012 18.30188 36069 ft 487 kts 131°
2026-05-08 21:48 44.34794 18.37577 36074 ft 487 kts 131°
2026-05-08 21:48 44.30597 18.44909 36076 ft 486 kts 131°
2026-05-08 21:49 44.26368 18.52276 36070 ft 486 kts 131°
2026-05-08 21:49 44.22129 18.59640 36074 ft 488 kts 131°
2026-05-08 21:50 44.17871 18.67020 36076 ft 489 kts 131°
2026-05-08 21:50 44.13603 18.74399 36074 ft 489 kts 131°
2026-05-08 21:51 44.09358 18.81718 36079 ft 489 kts 131°
2026-05-08 21:51 44.05089 18.89063 36080 ft 488 kts 131°
2026-05-08 21:52 44.00818 18.96389 36084 ft 487 kts 131°
2026-05-08 21:52 43.96531 19.03673 36070 ft 487 kts 132°
2026-05-08 21:53 43.92249 19.10927 36085 ft 491 kts 132°
2026-05-08 21:53 43.87943 19.18244 36079 ft 489 kts 132°
2026-05-08 21:54 43.83653 19.25531 36077 ft 488 kts 132°
2026-05-08 21:54 43.79354 19.32816 36086 ft 488 kts 132°
2026-05-08 21:55 43.75080 19.40037 36076 ft 488 kts 132°
2026-05-08 21:56 43.68631 19.50901 36073 ft 487 kts 132°
2026-05-08 21:56 43.64308 19.58157 36075 ft 490 kts 132°
2026-05-08 21:57 43.59979 19.65409 36084 ft 490 kts 132°
2026-05-08 21:57 43.55677 19.72598 36070 ft 489 kts 132°
2026-05-08 21:58 43.51341 19.79823 36079 ft 489 kts 132°
2026-05-08 21:58 43.46999 19.87039 36095 ft 489 kts 132°
2026-05-08 21:59 43.42635 19.94214 36090 ft 489 kts 132°
2026-05-08 21:59 43.38295 20.01352 36091 ft 491 kts 132°
2026-05-08 22:00 43.33913 20.08574 36095 ft 492 kts 132°
2026-05-08 22:00 43.29533 20.15785 36097 ft 492 kts 133°
2026-05-08 22:01 43.25148 20.22988 36098 ft 490 kts 132°
2026-05-08 22:01 43.20778 20.30146 36093 ft 489 kts 132°
2026-05-08 22:02 43.16436 20.37240 36091 ft 489 kts 132°
2026-05-08 22:02 43.12060 20.44371 36090 ft 490 kts 133°
2026-05-08 22:03 43.07663 20.51521 36087 ft 490 kts 133°
2026-05-08 22:03 43.03076 20.58362 36087 ft 487 kts 138°
2026-05-08 22:04 42.98223 20.64724 36091 ft 486 kts 139°
2026-05-08 22:04 42.93307 20.71073 36086 ft 486 kts 139°
2026-05-08 22:05 42.88418 20.77446 36083 ft 487 kts 139°
2026-05-08 22:05 42.83532 20.83838 36079 ft 487 kts 139°
2026-05-08 22:06 42.78679 20.90179 36079 ft 487 kts 139°
2026-05-08 22:06 42.73785 20.96557 36077 ft 487 kts 139°
2026-05-08 22:07 42.68886 21.02924 36076 ft 487 kts 139°
2026-05-08 22:07 42.66815 21.05611 36075 ft 487 kts 139°
2026-05-08 22:08 42.62492 21.11212 36061 ft 487 kts 139°
2026-05-08 22:08 42.57576 21.17566 36072 ft 489 kts 139°
2026-05-08 22:09 42.55809 21.19848 36075 ft 489 kts 139°
2026-05-08 22:09 42.50872 21.26210 36077 ft 490 kts 139°
2026-05-08 22:10 42.45932 21.32560 36078 ft 489 kts 139°
2026-05-08 22:10 42.41005 21.38835 36081 ft 489 kts 139°
2026-05-08 22:11 42.36053 21.45143 36073 ft 490 kts 139°
2026-05-08 22:11 42.31086 21.51478 36076 ft 491 kts 139°
2026-05-08 22:12 42.26115 21.57814 36077 ft 491 kts 139°
2026-05-08 22:12 42.21208 21.64139 36076 ft 492 kts 138°
2026-05-08 22:13 42.16340 21.70614 36091 ft 492 kts 137°
2026-05-08 22:13 42.11479 21.77114 36093 ft 492 kts 137°
2026-05-08 22:14 42.06603 21.83609 36094 ft 494 kts 137°
2026-05-08 22:14 42.01710 21.90101 36089 ft 495 kts 138°
2026-05-08 22:15 41.96839 21.96548 36087 ft 495 kts 138°
2026-05-08 22:15 41.91928 22.03032 36083 ft 495 kts 138°
2026-05-08 22:16 41.87017 22.09502 36082 ft 495 kts 138°
2026-05-08 22:16 41.82105 22.15958 36080 ft 496 kts 138°
2026-05-08 22:17 41.77162 22.22440 36086 ft 498 kts 138°
2026-05-08 22:17 41.72245 22.28875 36089 ft 498 kts 138°
2026-05-08 22:18 41.67290 22.35344 36088 ft 498 kts 138°
2026-05-08 22:18 41.62330 22.41786 36087 ft 497 kts 138°
2026-05-08 22:19 41.57344 22.48218 36081 ft 498 kts 138°
2026-05-08 22:19 41.52355 22.54667 36096 ft 501 kts 138°
2026-05-08 22:20 41.47383 22.61100 36098 ft 501 kts 138°
2026-05-08 22:20 41.42372 22.67570 36099 ft 501 kts 138°
2026-05-08 22:21 41.37355 22.74032 36103 ft 501 kts 138°
2026-05-08 22:21 41.32105 22.80071 36100 ft 498 kts 147°
2026-05-08 22:22 41.26377 22.85147 36103 ft 499 kts 150°
2026-05-08 22:22 41.20519 22.90099 36102 ft 499 kts 150°
2026-05-08 22:23 41.14688 22.95117 36102 ft 499 kts 150°
2026-05-08 22:23 41.09087 23.00587 36101 ft 503 kts 138°
2026-05-08 22:24 41.04759 23.07905 36090 ft 509 kts 123°
2026-05-08 22:24 41.01126 23.15940 36101 ft 514 kts 123°
2026-05-08 22:25 40.97322 23.23951 36102 ft 514 kts 125°
2026-05-08 22:25 40.93349 23.31810 36102 ft 514 kts 126°
2026-05-08 22:26 40.89335 23.39610 36099 ft 514 kts 126°
2026-05-08 22:26 40.85346 23.47362 36100 ft 514 kts 126°
2026-05-08 22:27 40.81332 23.55168 36097 ft 514 kts 126°
2026-05-08 22:27 40.77316 23.62964 36096 ft 514 kts 126°
2026-05-08 22:28 40.73296 23.70744 36093 ft 514 kts 126°
2026-05-08 22:28 40.69294 23.78473 36086 ft 515 kts 126°
2026-05-08 22:29 40.65235 23.86288 36089 ft 518 kts 126°
2026-05-08 22:29 40.61163 23.94112 36084 ft 518 kts 126°
2026-05-08 22:30 40.57079 24.01907 36083 ft 518 kts 126°
2026-05-08 22:30 40.52984 24.09720 36087 ft 519 kts 126°
2026-05-08 22:31 40.48927 24.17473 36082 ft 519 kts 126°
2026-05-08 22:31 40.44836 24.25283 36080 ft 519 kts 126°
2026-05-08 22:32 40.40739 24.33084 36077 ft 519 kts 126°
2026-05-08 22:32 40.36664 24.40820 36081 ft 519 kts 126°
2026-05-08 22:33 40.32553 24.48607 36084 ft 522 kts 127°
2026-05-08 22:33 40.28397 24.56457 36082 ft 525 kts 127°
2026-05-08 22:34 40.24228 24.64315 36078 ft 525 kts 127°
2026-05-08 22:34 40.20053 24.72164 36084 ft 525 kts 127°
2026-05-08 22:35 40.15901 24.79950 36086 ft 525 kts 127°
2026-05-08 22:35 40.11707 24.87775 36086 ft 525 kts 127°
2026-05-08 22:36 40.07496 24.95566 36075 ft 525 kts 127°
2026-05-08 22:36 40.03288 25.03369 36053 ft 525 kts 127°
2026-05-08 22:37 39.99124 25.11098 36043 ft 524 kts 127°
2026-05-08 22:37 39.94930 25.18867 36040 ft 524 kts 127°
2026-05-08 22:38 39.90176 25.25961 36042 ft 519 kts 140°
2026-05-08 22:38 39.84725 25.32116 36073 ft 518 kts 143°
2026-05-08 22:39 39.79215 25.38147 36069 ft 519 kts 143°
2026-05-08 22:39 39.73790 25.44236 36069 ft 519 kts 142°
2026-05-08 22:40 39.68355 25.50411 36076 ft 520 kts 142°
2026-05-08 22:40 39.62898 25.56608 36088 ft 521 kts 142°
2026-05-08 22:41 39.57440 25.62785 36093 ft 521 kts 142°
2026-05-08 22:41 39.51979 25.68949 36092 ft 520 kts 142°
2026-05-08 22:42 39.46562 25.75049 36090 ft 519 kts 142°
2026-05-08 22:42 39.41113 25.81170 36097 ft 521 kts 143°
2026-05-08 22:43 39.35629 25.87317 36105 ft 522 kts 143°
2026-05-08 22:43 39.30137 25.93455 36113 ft 522 kts 143°
2026-05-08 22:44 39.24627 25.99442 36110 ft 521 kts 144°
2026-05-08 22:44 39.19056 26.05421 36121 ft 521 kts 144°
2026-05-08 22:45 39.13497 26.11392 36102 ft 521 kts 145°
2026-05-08 22:45 39.07904 26.17400 36117 ft 525 kts 145°
2026-05-08 22:46 39.02297 26.23416 36123 ft 525 kts 145°
2026-05-08 22:46 38.96726 26.29381 36109 ft 524 kts 145°
2026-05-08 22:47 38.91116 26.35372 36115 ft 524 kts 145°
2026-05-08 22:47 38.85846 26.41889 36093 ft 533 kts 132°
2026-05-08 22:47 38.83761 26.45859 36097 ft 540 kts 121°
2026-05-08 22:48 38.82186 26.50257 36101 ft 543 kts 110°
2026-05-08 22:48 38.80656 26.59664 36120 ft 546 kts 95°
2026-05-08 22:49 38.79955 26.69363 36104 ft 546 kts 95°
2026-05-08 22:49 38.78450 26.83787 36117 ft 543 kts 99°
2026-05-08 22:50 38.77155 26.93328 36118 ft 543 kts 105°
2026-05-08 22:50 38.74353 27.02146 36123 ft 536 kts 125°
2026-05-08 22:51 38.69824 27.09639 36096 ft 531 kts 136°
2026-05-08 22:51 38.64988 27.16849 36101 ft 537 kts 134°
2026-05-08 22:52 38.60353 27.24383 36118 ft 539 kts 131°
2026-05-08 22:52 38.55886 27.31989 36124 ft 539 kts 131°
2026-05-08 22:53 38.51393 27.39659 36113 ft 539 kts 131°
2026-05-08 22:53 38.46870 27.47301 36113 ft 539 kts 131°
2026-05-08 22:54 38.42355 27.54902 36121 ft 537 kts 131°
2026-05-08 22:54 38.37865 27.62455 36126 ft 537 kts 131°
2026-05-08 22:55 38.33353 27.70034 36097 ft 536 kts 131°
2026-05-08 22:55 38.28864 27.77550 36134 ft 531 kts 133°
2026-05-08 22:56 38.23672 27.84049 36138 ft 518 kts 149°
2026-05-08 22:56 38.17811 27.89216 36133 ft 515 kts 153°
2026-05-08 22:57 38.11861 27.94291 36134 ft 516 kts 152°
2026-05-08 22:57 38.05971 27.99508 36132 ft 517 kts 151°
2026-05-08 22:58 38.00122 28.04780 36128 ft 516 kts 150°
2026-05-08 22:58 37.97196 28.07421 35827 ft 515 kts 150°
2026-05-08 22:58 37.94266 28.10059 35358 ft 516 kts 151°
2026-05-08 22:59 37.91347 28.12682 34746 ft 515 kts 151°
2026-05-08 22:59 37.88424 28.15304 34122 ft 515 kts 151°
2026-05-08 22:59 37.85537 28.17890 33450 ft 516 kts 151°
2026-05-08 22:59 37.82598 28.20517 32799 ft 519 kts 151°
2026-05-08 23:00 37.79643 28.23155 32167 ft 521 kts 151°
2026-05-08 23:00 37.76669 28.25808 31526 ft 525 kts 150°
2026-05-08 23:00 37.73678 28.28474 30926 ft 527 kts 150°
2026-05-08 23:00 37.70674 28.31151 30264 ft 529 kts 150°
2026-05-08 23:01 37.67687 28.33816 29515 ft 525 kts 150°
2026-05-08 23:01 37.64716 28.36466 28808 ft 519 kts 150°
2026-05-08 23:01 37.61834 28.39033 28169 ft 511 kts 150°
2026-05-08 23:01 37.58949 28.41597 27521 ft 504 kts 150°
2026-05-08 23:02 37.56092 28.44118 26902 ft 498 kts 150°
2026-05-08 23:02 37.53268 28.46607 26284 ft 492 kts 150°
2026-05-08 23:02 37.50454 28.48990 25641 ft 481 kts 155°
2026-05-08 23:02 37.47461 28.50735 24997 ft 468 kts 166°
2026-05-08 23:03 37.44383 28.51901 24369 ft 457 kts 172°
2026-05-08 23:03 37.41304 28.52808 23736 ft 452 kts 173°
2026-05-08 23:03 37.38290 28.53628 23026 ft 447 kts 173°
2026-05-08 23:03 37.35269 28.54467 22414 ft 441 kts 173°
2026-05-08 23:04 37.32282 28.55331 22037 ft 439 kts 172°
2026-05-08 23:04 37.29386 28.56205 21873 ft 418 kts 172°
2026-05-08 23:04 37.26634 28.57057 21745 ft 397 kts 172°
2026-05-08 23:04 37.24009 28.57875 21630 ft 378 kts 172°
2026-05-08 23:05 37.21520 28.58652 21516 ft 361 kts 173°
2026-05-08 23:05 37.19130 28.59398 21283 ft 349 kts 173°
2026-05-08 23:05 37.16789 28.60153 20813 ft 347 kts 169°
2026-05-08 23:05 37.14596 28.61391 20143 ft 359 kts 150°
2026-05-08 23:06 37.12833 28.63673 19446 ft 374 kts 123°
2026-05-08 23:06 37.11962 28.66763 18737 ft 382 kts 96°
2026-05-08 23:06 37.12023 28.70083 18001 ft 382 kts 79°
2026-05-08 23:06 37.12549 28.73303 17249 ft 371 kts 74°
2026-05-08 23:07 37.13156 28.76391 16530 ft 360 kts 74°
2026-05-08 23:07 37.13726 28.79407 15867 ft 351 kts 75°
2026-05-08 23:07 37.14237 28.82352 15216 ft 341 kts 76°
2026-05-08 23:07 37.14690 28.85190 14607 ft 332 kts 77°
2026-05-08 23:08 37.15113 28.87991 14010 ft 323 kts 77°
2026-05-08 23:08 37.15513 28.90741 13364 ft 318 kts 78°
2026-05-08 23:08 37.15708 28.93484 12748 ft 315 kts 93°
2026-05-08 23:08 37.15159 28.96095 12160 ft 309 kts 120°
2026-05-08 23:09 37.13861 28.98196 11663 ft 304 kts 136°
2026-05-08 23:09 37.12322 29.00004 11189 ft 301 kts 140°
2026-05-08 23:09 37.10753 29.01721 10967 ft 295 kts 140°
2026-05-08 23:09 37.09243 29.03352 10733 ft 281 kts 143°
2026-05-08 23:10 37.07618 29.04576 10314 ft 273 kts 163°
2026-05-08 23:10 37.05782 29.04854 9737 ft 267 kts 193°
2026-05-08 23:10 37.04096 29.03982 9211 ft 261 kts 218°
2026-05-08 23:10 37.02716 29.02520 8718 ft 261 kts 225°
2026-05-08 23:11 37.01411 29.00949 8341 ft 259 kts 226°
2026-05-08 23:11 37.00125 28.99375 7973 ft 258 kts 226°
2026-05-08 23:11 36.98843 28.97810 7586 ft 257 kts 225°
2026-05-08 23:11 36.97560 28.96260 7231 ft 256 kts 225°
2026-05-08 23:12 36.96279 28.94715 6867 ft 255 kts 225°
2026-05-08 23:12 36.95023 28.93205 6553 ft 252 kts 225°
2026-05-08 23:12 36.93814 28.91699 6465 ft 240 kts 226°
2026-05-08 23:12 36.92659 28.90241 6458 ft 234 kts 226°
2026-05-08 23:13 36.91510 28.88787 6441 ft 234 kts 226°
2026-05-08 23:13 36.90365 28.87339 6449 ft 235 kts 226°
2026-05-08 23:13 36.89216 28.85902 6437 ft 232 kts 221°
2026-05-08 23:13 36.87771 28.85052 6434 ft 231 kts 191°
2026-05-08 23:14 36.86208 28.85224 6425 ft 227 kts 157°
2026-05-08 23:14 36.85111 28.86571 6396 ft 225 kts 114°
2026-05-08 23:14 36.84986 28.88475 6444 ft 229 kts 74°
2026-05-08 23:14 36.85867 28.90083 6436 ft 228 kts 33°
2026-05-08 23:15 36.87324 28.90768 6494 ft 224 kts
2026-05-08 23:15 36.88809 28.90953 6420 ft 204 kts
2026-05-08 23:15 36.90175 28.91083 6456 ft 202 kts
2026-05-08 23:15 36.91655 28.91316 6469 ft 222 kts 15°
2026-05-08 23:16 36.92975 28.92353 6483 ft 238 kts 45°
2026-05-08 23:16 36.94080 28.93888 6497 ft 232 kts 49°
2026-05-08 23:16 36.95076 28.95419 6451 ft 225 kts 51°
2026-05-08 23:16 36.96054 28.96958 6449 ft 225 kts 51°
2026-05-08 23:17 36.97021 28.98490 6465 ft 225 kts 51°
2026-05-08 23:17 36.97979 29.00028 6473 ft 224 kts 55°
2026-05-08 23:17 36.98477 29.01826 6412 ft 218 kts 89°
2026-05-08 23:17 36.98249 29.03715 6272 ft 221 kts 119°
2026-05-08 23:18 36.97202 29.04962 6026 ft 207 kts 162°
2026-05-08 23:18 36.95826 29.04974 5857 ft 203 kts 204°
2026-05-08 23:18 36.94832 29.03806 5661 ft 201 kts 247°
2026-05-08 23:18 36.94517 29.02095 5578 ft 206 kts 261°
2026-05-08 23:19 36.94360 29.00313 5378 ft 205 kts 263°
2026-05-08 23:19 36.94110 28.98561 5188 ft 206 kts 250°
2026-05-08 23:19 36.93377 28.97060 4966 ft 202 kts 225°
2026-05-08 23:19 36.92338 28.95869 4793 ft 203 kts 220°
2026-05-08 23:20 36.91271 28.94722 4554 ft 202 kts 220°
2026-05-08 23:20 36.90203 28.93578 4336 ft 201 kts 220°
2026-05-08 23:20 36.89160 28.92460 4161 ft 201 kts 220°
2026-05-08 23:20 36.88092 28.91319 3753 ft 201 kts 220°
2026-05-08 23:21 36.87037 28.90190 3417 ft 197 kts 220°
2026-05-08 23:21 36.85975 28.89126 3372 ft 199 kts 213°
2026-05-08 23:21 36.84795 28.88206 3194 ft 203 kts 211°
2026-05-08 23:21 36.83553 28.87279 2639 ft 211 kts 210°
2026-05-08 23:22 36.82308 28.86359 2128 ft 204 kts 210°
2026-05-08 23:22 36.81107 28.85476 1759 ft 199 kts 210°
2026-05-08 23:22 36.79922 28.84606 1373 ft 193 kts 210°
2026-05-08 23:22 36.78835 28.83810 1063 ft 176 kts 210°
2026-05-08 23:23 36.77800 28.83051 910 ft 171 kts 211°
2026-05-08 23:23 36.76865 28.82168 664 ft 167 kts 222°
2026-05-08 23:23 36.75973 28.81238 567 ft 168 kts 216°
2026-05-08 23:23 36.74960 28.80526 367 ft 168 kts 201°
2026-05-08 23:24 36.73846 28.80119 199 ft 167 kts 193°
2026-05-08 23:24 36.72722 28.79733 70 ft 167 kts 195°
2026-05-08 23:24 36.71667 28.79369 27 ft 136 kts 195°
2026-05-08 23:24 36.70915 28.79114 25 ft 88 kts 195°
2026-05-08 23:25 36.70583 28.78874 24 ft 33 kts 242°
2026-05-08 23:25 36.70568 28.78803 22 ft 1 kts 305°
2026-05-08 23:25 36.70575 28.78800 23 ft 1 kts 335°
2026-05-08 23:25 36.70589 28.78798 22 ft 3 kts 352°
2026-05-08 23:26 36.70621 28.78796 22 ft 6 kts 359°
2026-05-08 23:26 36.70647 28.78805 22 ft 6 kts 17°
2026-05-08 23:26 36.70711 28.78829 22 ft 13 kts 17°
2026-05-08 23:26 36.70813 28.78866 24 ft 18 kts 16°
2026-05-08 23:27 36.70948 28.78915 26 ft 22 kts 16°
2026-05-08 23:27 36.71112 28.78972 26 ft 27 kts 15°
2026-05-08 23:27 36.71291 28.79001 25 ft 23 kts 336°
2026-05-08 23:27 36.71359 28.78877 26 ft 14 kts 301°
2026-05-08 23:28 36.71403 28.78777 26 ft 13 kts 290°
2026-05-08 23:28 36.71420 28.78707 26 ft 0 kts 286°